Погода в Сомосомо

Фиджи     16°46′14″S   179°58′14″W
темп.,
°C
ветер,
м/с
пор.,
м/с
влажн.,
%
обл.,
%
осадки,
мм/ч
давл.,
гПа
погр.,
м
29 ноября, пн
пн2901:00+28вюв567787 2.6 1012779
04:00+27вюв448097 2.0 1010489
07:00+27юв5581100 5.7 1012384
10:00+27вюв6780100 4.5 1012661
13:00+27в6780100 7.9 1011665
16:00+27вюв677994 2.8 1009750
19:00+27вюв888018 4.4 1010774
22:00+27в898028 0.8 1011806
30 ноября, вт
вт3001:00+27в888191 3.0 1010773
04:00+27вюв778071 5.4 1009682
07:00+27вюв9980100 13.4 1011812
10:00+27вюв997598 2.1 1012966
13:00+27вюв897199 2.2 10101174
16:00+27вюв9970100 0.0 10091106
19:00+27вюв886798 0.1 10101314
22:00+27вюв886798 0.0 10111172
1 декабря, ср
ср101:00+27вюв886836 0.0 10101239
04:00+27вюв776593 0.0 10091363
07:00+27вюв776595 0.0 10101365
10:00+27в776469 0.0 10111300
13:00+27вюв676993 0.0 1010979
16:00+27вюв666819 0.1 1009995
19:00+27вюв666766 0.1 10091101
22:00+27вюв7771100 0.0 10111070
2 декабря, чт
чт201:00+27вюв6675100 0.1 1010875
04:00+27юв6673100 0.1 1008942
07:00+27вюв6671100 0.1 1009953
10:00+27юв5570100 0.0 1010871
13:00+27вюв446787 0.0 1008781
16:00+27юв336694 0.0 1007793
19:00+27юв3367100 0.0 1007720
22:00+27вюв337597 0.0 1009727
3 декабря, пт
пт301:00+27вюв3377100 0.2 1008677
04:00+27вюв3377100 0.1 1006680
07:00+27вюв4476100 0.1 1008739
10:00+27вюв447595 0.1 1009787
13:00+27вюв4474100 0.1 1007778
16:00+28вюв447413 0.1 1005780
19:00+28вюв447435 0.1 1006830
22:00+27в337695 0.5 1008377